Location: Liberec
(50.7833°N, 15.0500°E)
Time: 11:51:15
(UTC+01:00)

ISS - Visible Passes

Search period start: 20 January 2018 00:00
Search period end: 30 January 2018 00:00
Orbit: 402 x 407 km, 51.6° (Epoch: 20 January)

Date Brightness Start Highest point End Pass type
(mag) Time Alt. Az. Time Alt. Az. Time Alt. Az.
26 Jan -1.6 18:54:55 10° SSW 18:56:12 18° S 18:56:12 18° S visible
27 Jan -1.8 18:03:23 10° S 18:05:26 16° SE 18:06:11 15° SE visible
27 Jan -0.9 19:38:12 10° WSW 19:38:51 15° WSW 19:38:51 15° WSW visible
28 Jan -3.0 18:46:00 10° SW 18:48:45 40° S 18:48:45 40° S visible
29 Jan -2.5 17:53:58 10° SSW 17:56:48 28° SSE 17:58:36 17° E visible
29 Jan -1.6 19:29:46 10° WSW 19:31:15 25° WSW 19:31:15 25° WSW visible
